Simultaneous Nadir Overpasses (SNOs) Predictions

Prediction of SNOs between NOAA-20 and NOAA-19 Satellite Orbit:

Table of predicted SNOs for the next 14.0 days since TLE Epoch: 11/16/2018
Index Date (NOAA-20) Time (NOAA-20) Lat,Lon (NOAA-20) SZA (NOAA-20 ) Date (NOAA-19) Time (NOAA-19) Lat,Lon (NOAA-19) SZA (NOAA-19 ) Distance(km) Time Diff (sec)
1 11/17/2018 11:15:01 80.36, -31.75 101.42 11/17/2018 11:13:55 80.35, -31.64 101.44 2.10 66
2 11/17/2018 12:05:45 -80.34, 135.73 78.60 11/17/2018 12:04:54 -80.36, 135.70 78.57 1.69 51
3 11/17/2018 12:56:31 80.36, -57.16 101.44 11/17/2018 12:55:56 80.35, -57.13 101.45 0.91 35
4 11/17/2018 13:47:15 -80.34, 110.32 78.58 11/17/2018 13:46:55 -80.36, 110.20 78.55 2.65 20
5 11/17/2018 14:38:01 80.36, -82.57 101.47 11/17/2018 14:37:57 80.35, -82.63 101.47 1.51 4
6 11/17/2018 15:28:46 -80.37, 84.59 78.50 11/17/2018 15:28:56 -80.36, 84.70 78.53 2.70 10
7 11/17/2018 16:19:31 80.36,-107.98 101.49 11/17/2018 16:19:58 80.35,-108.12 101.49 2.96 27
8 11/17/2018 17:10:16 -80.38, 59.18 78.48 11/17/2018 17:10:57 -80.36, 59.20 78.52 2.19 41
9 11/17/2018 18:01:00 80.37,-133.39 101.51 11/17/2018 18:01:57 80.37,-133.28 101.48 2.08 57




NCC Satellite Simultaneous Nadir Overpasses (SNOs) Prediction Service
